SCP
0 0 0 0 0 0 0 0 0 0 0 0 0 0 0 0 0 1 1 1 1 1 1 1 1 1 1 1 1 1 1 1 1 1 1 1 1 0 0 0 0 0 0 0
0 0 0 0 0 0 0 0 0 0 0 0 0 0 0 0 0 0 1 1 1 1 1 1 1 1 1 1 1 1 1 1 0 0 1 1 1 0 0 0 0 0 0 0
0 0 0 0 0 0 0 0 0 0 0 0 0 0 0 0 0 0 1 1 1 1 1 1 1 1 1 1 1 1 1 1 0 0 0 0 0 0 0 0 0 0 0 0
0 0 0 0 0 0 0 0 0 0 0 0 0 0 0 0 0 0 0 1 1 1 1 1 1 1 1 1 1 1 1 1 1 1 0 0 0 0 0 0 0 0 0 0
0 0 0 0 0 0 0 0 0 0 0 0 0 0 0 0 0 0 1 1 1 1 1 1 1 1 1 1 1 1 1 1 1 1 0 0 0 0 0 0 0 0 0 0
0 0 0 0 0 0 0 0 0 0 0 0 0 0 0 1 1 1 1 1 1 1 1 1 1 1 1 1 1 1 1 1 0 0 0 0 0 0 1 0 0 0 0 0
0 0 0 0 0 0 0 0 0 0 0 0 0 1 1 1 1 1 1 1 1 1 1 1 1 1 1 1 1 1 1 0 0 0 0 0 0 0 1 0 0 0 0 0
0 0 0 0 0 0 0 0 0 0 0 1 1 1 1 1 1 1 1 1 1 1 1 1 1 1 1 1 1 1 1 1 1 0 0 0 0 0 0 0 0 0 0 0
0 0 0 0 0 0 0 0 0 0 0 1 1 1 1 1 1 1 1 1 1 1 1 1 1 1 1 1 1 1 1 1 1 1 1 1 1 1 0 0 0 0 0 0
0 0 0 0 0 0 0 0 0 0 0 0 0 1 1 1 1 1 1 1 1 1 1 1 1 1 1 1 1 1 1 1 1 1 1 1 1 1 0 0 0 0 0 0
0 0 0 0 0 0 0 0 0 0 0 0 0 0 0 1 1 1 1 1 1 1 1 1 1 1 1 1 1 1 1 1 1 1 1 1 1 1 0 0 0 0 0 0
0 0 0 0 0 0 0 0 0 0 0 0 0 0 0 1 1 1 1 1 1 1 1 1 1 1 1 1 1 1 1 1 1 1 1 1 1 0 0 0 0 0 0 0
0 0 0 0 0 0 0 0 0 0 0 0 0 0 0 0 1 1 1 1 1 1 1 1 1 1 1 1 1 1 1 1 1 1 1 1 1 0 0 0 0 0 0 0
0 0 0 0 0 0 0 0 0 0 0 0 0 0 0 0 0 0 1 1 1 1 1 1 1 1 1 1 1 1 1 1 1 1 1 1 1 0 0 0 0 0 0 0
0 0 0 0 0 0 0 0 0 0 0 0 0 0 0 0 0 0 0 0 1 1 0 1 1 1 1 1 1 1 1 1 1 1 1 1 0 0 0 0 0 0 0 0
0 0 0 0 0 0 0 0 0 0 0 0 0 0 0 0 0 0 0 0 1 1 0 0 1 1 1 1 1 1 1 1 1 1 0 0 0 0 0 0 0 0 0 0
0 0 0 0 0 0 0 0 0 0 0 0 0 0 0 0 0 0 0 1 1 1 0 0 0 1 1 1 1 1 1 0 0 0 0 0 0 0 0 0 0 0 0 0
0 0 0 0 0 0 0 0 0 0 0 0 0 0 0 0 0 0 0 0 0 0 0 0 0 0 0 0 0 1 0 0 0 0 0 0 0 0 0 0 0 0 0 0
0 0 0 0 0 0 0 0 0 0 0 0 0 0 0 0 0 0 0 0 0 0 0 0 0 0 0 0 0 0 0 0 0 0 0 0 0 0 0 0 0 0 0 0
0 0 0 0 0 0 0 0 0 0 0 0 0 0 0 0 0 0 0 0 0 0 0 0 0 0 0 0 0 0 0 0 0 0 0 0 0 0 0 0 0 0 0 0
0 0 0 0 0 0 0 0 0 0 0 0 0 0 0 0 0 0 0 0 0 0 0 0 0 0 0 0 0 0 0 0 0 0 0 0 0 0 0 0 0 0 0 0
0 0 0 0 0 0 0 0 0 0 0 0 0 0 0 0 0 0 0 0 0 0 0 0 0 0 0 0 0 0 0 0 0 0 0 0 0 0 0 0 0 0 0 0
0 0 0 0 0 0 0 0 0 0 0 0 0 0 0 0 0 0 0 0 0 0 0 0 0 0 0 0 0 0 0 0 0 0 0 0 0 0 0 0 0 0 0 0
0 0 0 0 0 0 0 0 0 0 0 0 0 0 0 0 0 0 0 0 0 0 0 0 0 0 0 0 0 0 0 0 0 0 0 0 0 0 0 0 0 0 0 0
0 0 0 0 0 0 0 0 0 0 0 0 0 0 0 0 0 0 0 0 0 0 0 0 0 0 0 0 0 0 0 0 0 0 0 0 0 0 0 0 0 0 0 0
0 0 0 0 0 0 0 0 0 0 0 0 0 0 0 0 0 0 0 0 0 0 0 0 0 0 0 0 0 0 0 0 0 0 0 0 0 0 0 0 0 0 0 0
0 0 0 0 0 0 0 0 0 0 0 0 0 0 0 0 0 0 0 0 0 0 0 0 0 0 0 0 0 0 0 0 0 0 0 0 0 0 0 0 0 0 0 0
Wind_Speed
9 7 8 9 10 11 13 12 11 9 9 6 4 4 3 3 3 3 3 3 4 5 5 5 6 6 6 6 6 6 5 5 5 4 4 4 3 3 3 3 3 3 3 3
10 9 9 10 11 12 12 12 12 11 9 3 2 3 4 4 4 4 3 4 4 5 5 6 6 6 6 6 6 6 5 5 4 4 4 4 3 3 3 3 2 3 3 3
10 8 9 12 10 11 11 10 11 11 7 3 5 5 5 4 4 4 3 4 4 4 5 5 5 5 6 6 6 6 6 5 4 4 4 4 3 3 3 3 3 3 3 3
8 7 13 4 1 6 8 9 8 7 5 4 4 3 3 3 3 3 3 3 3 4 4 5 5 5 5 5 6 6 5 5 5 4 4 4 3 3 3 3 3 3 3 2
8 10 10 5 2 3 6 7 4 5 4 3 2 4 4 2 2 2 2 2 2 3 4 4 4 5 5 5 5 5 5 5 4 4 4 4 4 3 3 3 3 3 3 3
9 11 10 1 2 2 6 7 1 3 3 3 4 6 2 2 1 0 0 1 2 3 3 4 4 5 5 5 5 4 4 4 4 4 4 4 3 3 3 3 3 3 2 3
10 10 6 3 1 4 8 1 2 2 2 4 4 3 3 2 2 2 1 2 3 3 2 3 4 4 5 5 5 4 4 4 4 4 4 3 3 3 3 3 2 3 3 3
8 10 5 3 2 3 3 4 2 2 2 3 2 2 1 1 1 1 1 1 2 2 2 2 4 5 5 5 4 4 4 4 4 4 3 3 3 3 3 3 3 3 3 4
4 3 3 0 1 1 3 3 3 3 3 3 1 0 1 1 1 1 1 1 1 2 2 2 3 4 4 4 4 4 5 4 4 4 3 3 3 3 4 3 3 3 3 3
5 3 2 1 1 1 2 2 2 2 2 2 2 1 1 1 1 1 1 1 1 1 1 1 2 3 3 3 4 4 5 4 4 4 4 3 3 3 3 2 3 3 3 3
7 4 3 3 2 2 1 1 0 0 1 2 2 1 1 1 1 1 1 1 0 0 1 1 2 2 2 3 4 4 4 4 4 4 3 3 2 1 2 1 2 3 3 3
5 3 4 2 1 2 2 1 1 1 1 1 1 1 1 1 1 1 1 1 1 1 1 1 2 2 1 2 3 4 4 4 4 3 3 3 3 2 2 1 1 1 2 4
5 5 4 2 2 2 2 2 2 1 0 1 1 1 1 1 1 1 1 1 1 1 1 1 2 1 1 2 3 4 4 3 3 3 3 3 3 3 2 2 2 2 2 2
3 3 4 3 3 2 2 2 1 1 1 1 1 1 1 1 1 1 1 1 1 1 1 1 2 1 1 2 3 3 4 3 3 3 3 3 3 3 3 2 2 2 3 4
4 4 3 3 3 2 2 1 1 1 1 1 1 1 1 1 1 1 1 1 1 1 1 1 1 1 1 2 3 4 4 3 2 2 3 3 3 3 3 2 2 2 2 3
3 3 2 2 2 2 2 2 2 2 1 1 0 1 1 1 1 1 1 2 2 2 1 1 1 1 1 2 3 3 2 1 3 3 3 3 3 3 3 3 3 2 2 1
4 3 3 3 2 2 2 2 2 2 1 1 0 0 1 1 1 1 2 2 1 1 2 2 2 1 1 2 3 3 2 2 4 4 3 3 3 3 3 3 3 3 2 0
4 3 3 3 3 2 2 2 2 2 1 1 1 1 1 1 1 1 1 1 1 1 1 1 1 1 2 2 2 2 2 3 3 2 2 3 3 4 3 3 3 3 2 2
2 2 2 2 2 3 2 2 1 1 1 1 1 1 1 1 1 1 1 2 2 1 0 0 1 3 2 1 2 2 3 3 3 2 3 3 4 4 3 3 3 3 3 2
1 1 1 1 1 1 1 1 1 1 1 1 1 1 1 1 1 1 1 2 1 1 0 0 2 2 2 1 2 2 3 3 3 3 3 4 4 3 3 3 3 3 3 3
0 0 1 1 1 1 1 1 1 0 0 1 1 2 1 1 1 1 2 1 1 1 1 1 2 2 2 1 3 3 2 3 3 3 3 3 3 3 3 3 3 3 3 3
0 1 1 1 1 0 1 0 1 1 0 0 1 1 1 1 1 1 1 1 1 1 2 2 1 1 2 3 3 2 2 3 3 3 3 3 3 3 3 2 2 3 3 3
0 0 0 0 0 1 0 0 1 1 1 1 1 1 1 2 2 2 1 1 1 1 3 1 2 1 3 4 2 2 2 2 3 3 3 2 2 2 2 2 2 2 2 2
1 1 1 1 1 1 1 1 1 1 1 1 0 1 1 1 1 1 1 1 0 2 3 1 0 2 5 4 2 2 2 2 2 2 2 2 2 2 2 2 2 2 2 3
1 2 1 1 1 1 1 1 1 1 2 1 0 0 0 1 1 1 1 1 0 3 3 1 2 3 4 3 2 2 2 1 2 2 2 2 2 2 2 1 1 1 2 2
1 1 1 2 1 1 1 1 1 1 1 1 0 0 0 0 0 1 1 1 1 3 3 2 2 3 3 2 2 2 2 1 2 2 2 2 2 2 2 2 2 2 2 2
2 2 2 2 1 1 1 1 1 1 1 1 0 0 1 1 0 1 1 1 2 2 2 2 2 2 2 2 1 1 1 1 1 1 1 2 1 1 1 2 2 2 2 2
Wind_Direction
261 269 252 239 233 229 235 247 258 263 264 258 230 229 225 221 212 202 180 180 179 177 171 170 170 173 174 172 169 172 179 182 182 183 183 185 181 180 183 201 209 210 213 221
244 241 241 243 238 234 237 246 253 257 259 268 234 225 213 211 209 213 212 203 186 177 172 173 173 175 175 175 173 173 177 177 170 175 179 179 178 183 188 199 214 213 212 221
243 230 237 238 236 236 236 239 247 252 260 239 225 220 222 220 218 221 221 205 195 186 180 178 176 172 176 175 174 175 175 175 174 179 178 179 187 186 191 195 200 214 219 222
245 227 237 237 246 249 250 251 254 263 265 254 250 232 230 233 237 235 233 217 197 187 179 174 169 167 172 166 171 174 174 177 177 181 182 179 184 189 196 199 202 211 220 220
243 238 243 223 216 246 248 248 253 263 258 244 220 218 205 196 232 245 239 224 198 184 173 164 161 162 168 164 164 172 177 179 174 179 186 186 187 192 196 201 210 214 213 217
241 248 248 222 95 268 248 234 197 266 247 228 214 233 169 105 102 87 67 135 150 155 154 155 160 164 170 167 170 182 179 173 167 174 186 192 193 200 196 205 216 223 213 223
240 245 250 57 69 222 233 298 37 289 262 245 244 313 40 61 61 77 115 138 147 149 158 155 156 164 173 173 175 178 173 169 167 176 187 184 184 191 202 211 212 228 227 226
234 240 230 84 198 239 343 356 322 303 288 288 319 26 76 70 58 70 92 119 138 138 135 148 164 175 182 184 178 170 172 174 175 181 195 174 182 191 205 215 215 220 228 237
257 280 30 307 273 311 308 295 296 290 287 278 287 343 27 53 53 52 80 107 120 126 128 151 174 179 189 185 174 171 172 178 184 187 196 195 199 203 208 212 229 230 228 235
245 230 233 254 289 291 295 282 276 273 272 271 265 286 315 329 13 29 23 70 130 139 135 151 177 184 181 173 169 175 183 187 194 197 199 196 217 222 230 228 234 240 244 248
240 242 235 227 280 302 284 285 270 240 260 268 261 276 303 315 322 318 315 322 309 214 170 184 193 193 183 170 175 184 196 200 206 206 201 197 198 263 265 309 328 290 283 276
263 251 258 251 265 280 267 272 295 289 273 271 273 280 281 281 282 280 277 271 243 229 227 212 203 195 183 180 191 198 201 203 209 208 197 199 186 168 68 359 65 330 298 291
279 282 282 261 264 271 272 301 311 297 251 275 278 265 261 261 262 254 252 258 260 245 224 200 203 204 191 184 198 211 219 215 216 210 199 204 206 210 199 168 178 207 221 231
263 258 243 237 248 259 256 282 293 293 270 238 223 214 211 203 193 205 237 237 241 234 214 200 206 205 200 190 199 208 216 204 218 213 219 221 227 231 230 227 210 195 183 185
243 251 241 227 229 241 249 249 257 265 270 253 195 184 182 185 198 209 233 249 242 228 216 220 224 215 179 194 209 218 225 216 217 223 223 227 237 241 244 244 247 236 209 175
234 222 213 212 209 223 230 241 256 270 276 254 190 189 202 206 220 235 237 236 230 229 240 247 256 242 199 211 220 223 227 224 241 239 232 231 236 241 245 250 257 264 262 269
225 217 205 206 209 216 235 261 278 285 289 282 279 246 226 218 229 239 247 247 226 230 235 233 240 237 218 217 233 239 233 207 216 238 240 244 253 255 257 262 266 270 270 319
243 240 229 226 219 212 232 260 277 280 289 318 322 270 254 240 237 239 243 231 204 198 197 186 175 215 222 229 239 252 248 247 245 249 250 249 256 256 257 258 259 262 256 194
228 219 219 227 224 209 213 228 254 285 289 245 218 236 246 226 205 210 226 230 217 195 25 111 206 217 209 210 248 240 249 259 263 261 254 238 243 251 257 264 267 266 272 272
190 190 197 216 205 204 226 236 252 271 269 254 242 250 266 299 268 244 232 233 274 350 313 259 231 234 237 222 259 254 261 262 260 255 253 253 252 252 255 258 262 269 273 277
358 142 139 131 106 98 80 66 61 40 336 274 258 262 277 276 253 243 242 250 37 6 282 231 240 258 272 299 255 257 261 268 268 267 264 262 262 263 266 270 276 281 284 285
338 67 74 79 104 99 71 82 103 112 143 263 279 291 286 260 242 239 251 299 324 5 273 260 269 14 338 290 263 276 280 281 277 272 268 266 264 263 270 280 286 285 282 283
248 184 126 119 146 125 137 162 155 173 197 237 284 301 302 303 290 280 277 17 330 330 282 306 32 25 296 270 273 279 279 277 273 271 267 269 272 274 273 271 273 276 278 280
208 186 179 175 158 157 170 189 223 198 198 220 236 290 288 262 250 272 336 117 202 286 285 55 66 285 265 261 267 262 259 260 263 268 269 269 268 271 277 278 279 284 283 286
165 175 175 190 204 195 183 203 199 187 202 198 156 102 295 338 320 330 329 315 328 270 276 166 197 258 261 265 260 267 276 288 297 294 271 275 288 294 300 301 302 303 300 301
177 188 179 222 243 246 237 224 221 210 215 201 190 191 237 175 315 307 290 296 298 276 279 278 265 254 270 278 279 289 293 263 245 258 290 296 297 305 308 307 300 294 295 296
192 188 197 204 181 205 238 249 255 254 245 231 235 269 256 243 256 302 314 322 318 304 307 304 297 295 301 304 298 291 289 296 303 304 297 297 306 309 308 302 298 297 297 301